OBJECT Q (43772 NORAD) Tracking and Keplerian Element Data

This shows tracking and keplerian element data for the satellite.

Feedback or suggestion? Click here.




ElementValue
Catalog43772
NameOBJECT Q
Epoch Orbit566
Epoch Day10.70877273
Epoch Year2019
RAAN84.4984
Inclination97.7693
Eccentricity0.0015448
Argument of Perigee128.2608
Mean Anonmoly232.0005
Mean Motion14.94725352
Decay Rate-8E-08
L11 43772U 18099Q 19010.70877273 -.00000008 00000-0 45712-5 0 9995
L22 43772 97.7693 84.4984 0015448 128.2608 232.0005 14.94725352 5663

Live tracking and technical data element details for OBJECT Q (NORAD 43772). OBJECT Q can be tracked NOW for your location showing map with azimuth and elevation plus other details from your city location.

Track the satellite on the map from your city or location and see movement details for azimuth, elevation, latitude, longitude, range, height, and movement on the map or in text.







IsCatalogInMostPopularTable: catalog: 43772, numindb: 14
Update: records affected: 1



GetName: 43772 OBJECT Q

Hit Count: updated at: Thu, 17 Jan 2019 16:02:03 GMT